Starlink 31566

operational
NORAD ID: 59475 Int'l Des: 2024-068 Owner: SPXS Country: US Constellation: starlink
LEOCIRCULAR

About Starlink 31566

Description loading...

Live Position

Loading 3D Globe...

Upcoming Passes

Altitude History

Altitude vs Time

uPlot chart will show altitude changes over time

Two-Line Element Set

1 59475U 24068W 25258.12349428 .00003790 00000-0 14719-3 0 9999
2 59475 43.0029 305.8893 0001235 273.4236 86.6475 15.27580177 81675
Epoch: Sep 15, 2025 • Age: 26 hours

Current Status

Altitude 493.1 km
Velocity 7.62 km/s
Sub-Earth Point -36.71°S, 100.16°E
Launch Date Apr 10, 2024
Age 1.4 years
Type internet

Technical Details

Classification Payload
Mass 730.00 kg
Dry Mass 700.00 kg
Total Mass 730.00 kg
Length 0.30 m
Diameter 4.10 m
Span 29.00 m
Shape Box + pan
Manufacturer SPXS
Bus Type Starlink V2M
Phase Status In Orbit
Owner/State SPXS/US

Large Constellations

Loading constellations...